Regional Weather Roundup
Issued by NWS

Home | Current Version | Previous Version | Graphics & Text | Print | Product List | Glossary On
Versions: 1 2 3 4 5 6 7 8 9 10 11 12 13 14 15 16 17 18 19 20 21 22 23 24 25 26 27 28 29 30 31 32 33 34 35 36 37 38 39 40 41 42 43 44 45 46 47 48 49 50
000
ASUS43 KLSX 211107
RWRMO

WEATHER SUMMARY FOR MISSOURI
NATIONAL WEATHER SERVICE SPRINGFIELD MO
500 AM CST SUN DEC 21 2014

NOTE: "FAIR" INDICATES FEW OR NO CLOUDS BELOW 12,000 FEET WITH NO
       SIGNIFICANT WEATHER AND/OR OBSTRUCTIONS TO VISIBILITY.
       CURRENT SKY AND/OR WEATHER CONDITIONS ARE NOT AVAILABLE FOR
       CHILLICOTHE AND FARMINGTON.

MOZ001>031-035>038-043-044-053-054-211200-
...NORTHERN AND WESTERN MISSOURI...

CITY           SKY/WX    TMP DP  RH WIND       PRES   REMARKS
KANSAS CTY INT CLOUDY    37  34  89 S13       30.05F WCI  29
KANSAS C DTWN  CLOUDY    39  34  82 S12       30.07F
LEE`S SUMMIT   CLOUDY    37  35  92 S7        30.08F FOG
ST JOSEPH      CLOUDY    36  33  89 S8        30.05F WCI  30
CHILLICOTHE      N/A     39  35  86 S7        30.10F
KIRKSVILLE     CLOUDY    39  35  86 S7        30.11F

$$
MOZ066>068-077>081-088>096-101>105-211200-
...SOUTHWEST MISSOURI...

CITY           SKY/WX    TMP DP  RH WIND       PRES   REMARKS
SPRINGFIELD    CLOUDY    41  36  82 S8        30.10F
JOPLIN         CLOUDY    43  38  82 S8        30.10F

$$
MOZ032>034-039>042-045>050-055>058-069>072-211200-
...CENTRAL MISSOURI...

CITY           SKY/WX    TMP DP  RH WIND       PRES   REMARKS
COLUMBIA       CLOUDY    40  35  83 SE7       30.14S
JEFFERSON CITY CLOUDY    42  35  76 E6        30.16R
ROLLA          CLOUDY    39  34  82 S8        30.13S
SEDALIA        CLOUDY    42  35  76 S8        30.13S
WHITEMAN AFB   CLOUDY    41  35  81 S7        30.10F
WARRENSBURG    CLOUDY    41  34  75 S6        30.10F
OSAGE BEACH    CLOUDY    43  32  65 SW7       30.14S

$$
MOZ051-052-059>065-211200-
...EAST CENTRAL MISSOURI...

CITY           SKY/WX    TMP DP  RH WIND       PRES   REMARKS
ST LOUIS INTL  CLOUDY    41  33  73 SE7       30.20S
SPIRIT OF STL  CLOUDY    40  34  79 SE5       30.19S
ST CHARLES     CLOUDY    39  34  82 SE7       30.20S

$$
MOZ072>076-082>087-097>100-106>115-211200-
...SOUTH CENTRAL AND SOUTHEAST MISSOURI...

CITY           SKY/WX    TMP DP  RH WIND       PRES   REMARKS
CAPE GIRARDEAU CLEAR     29  28  96 E3        30.25R
FARMINGTON     CLOUDY    37  34  87 E3        30.21S
POPLAR BLUFF   CLOUDY    38  29  70 SE3       30.23R
WEST PLAINS    CLOUDY    38  34  85 S5        30.17F

$$



USA.gov is the U.S. government's official web portal to all federal, state and local government web resources and services.